Back to catalog

COSMOS 397 DEB

AliveLEO
NORAD 5097·DEBRIS·🇷🇺 Russia

Launched Feb 25, 1971 from Baikonur Cosmodrome

Loading…

Next Passes

TLE

Source: Space-Track
1  5097U 71015W   26221.88408618  .00000973  00000-0  38073-3 0  9994
2  5097  65.7365  80.2969 0750283  82.3064 286.2451 13.37173118644385

Track COSMOS 397 DEB in real time with AllMySat

Download on the App Store